Probability
0 0 0 0 0 0 0 0 0 0 0 0 0 1 0 0 0 0 1 2 4 6 6 7 8 7 6 7 8 10 12 13 13 12 11 9 7 6 5 4 3 1 0 0 0 0 0 0 0
0 0 0 0 0 0 0 0 0 0 0 0 1 1 1 0 0 0 1 2 4 6 6 6 6 7 7 7 8 10 10 11 12 11 10 9 8 6 6 5 4 1 0 0 1 1 1 1 0
0 0 0 0 0 0 0 0 0 0 0 0 1 2 2 1 0 0 1 3 6 7 6 5 7 9 8 8 8 9 9 9 10 10 9 9 8 7 6 6 5 3 1 1 2 2 3 2 1
0 0 0 0 0 0 0 0 0 0 0 0 1 2 2 1 0 1 2 5 8 8 6 7 11 13 11 9 8 8 8 8 9 9 9 9 9 7 6 6 6 4 3 2 3 3 4 4 2
0 0 0 0 0 0 0 0 0 0 0 1 2 3 2 1 1 3 4 6 9 9 8 10 16 17 13 10 10 9 9 9 9 9 9 9 9 7 6 6 6 6 5 4 4 4 4 4 4
0 0 0 0 0 0 0 0 0 0 1 2 4 6 5 3 3 5 5 6 10 12 12 14 18 19 15 12 12 13 12 10 9 9 9 8 8 7 6 6 6 6 6 6 6 5 4 4 4
0 0 0 0 0 0 0 0 0 0 1 2 5 6 6 5 7 9 9 9 12 15 16 17 17 18 16 14 13 15 14 11 10 9 9 7 6 5 6 6 6 6 6 5 5 5 4 3 2
0 0 0 0 0 0 0 0 0 0 1 3 5 7 8 10 12 14 13 12 13 16 18 17 15 15 16 13 12 12 12 11 10 9 8 6 5 4 4 4 5 5 4 3 2 3 3 2 1
0 0 0 0 0 0 0 0 0 1 3 6 7 9 14 18 17 15 14 13 15 17 18 15 12 12 12 10 9 9 9 9 9 8 7 6 4 3 3 3 3 4 3 2 1 1 2 2 1
0 0 0 0 0 0 0 0 0 1 4 7 9 14 21 22 19 14 13 14 16 18 18 15 12 10 9 9 10 10 9 9 10 9 7 6 4 3 3 3 2 2 2 2 2 1 2 3 3
0 0 0 0 0 0 0 0 0 1 2 5 9 16 22 23 20 16 14 15 16 18 19 18 15 12 11 12 14 15 14 12 10 9 7 6 4 3 4 4 2 1 2 3 3 3 3 3 3
0 0 0 0 0 0 0 0 0 0 1 4 8 15 21 22 20 19 19 17 17 17 18 18 18 16 15 15 16 17 15 13 10 8 7 6 5 3 3 3 3 2 3 3 3 3 3 3 3
0 0 0 0 0 0 0 0 0 0 2 4 10 16 18 18 18 19 20 19 17 16 17 17 18 18 16 16 15 14 13 11 9 8 7 6 5 3 2 2 2 3 3 3 3 3 3 3 3
0 0 0 0 0 0 0 0 0 1 3 7 11 15 15 13 13 15 16 17 15 15 15 15 16 15 15 14 14 12 10 8 9 9 8 7 6 4 3 2 2 1 2 3 3 3 3 3 3
0 0 0 0 0 0 0 0 0 1 5 9 11 13 13 11 10 11 12 13 14 13 13 14 13 11 11 10 10 9 8 8 8 8 8 8 7 5 4 3 2 1 2 3 3 3 3 3 3
0 0 0 0 0 0 0 0 0 2 6 10 12 13 12 10 8 8 9 10 11 12 13 14 12 10 8 7 6 7 7 8 8 6 6 6 6 5 4 3 3 3 3 3 3 3 3 3 3
0 0 0 0 0 0 0 0 0 2 5 8 11 13 12 8 5 5 7 8 10 11 14 15 13 11 9 6 6 5 6 7 8 6 4 5 5 4 3 3 3 3 3 3 2 3 3 3 3
0 0 0 0 0 0 0 0 1 2 4 6 8 9 9 6 4 4 5 8 10 12 13 14 13 11 10 8 7 6 6 6 7 6 5 4 4 3 3 3 3 3 3 3 3 3 2 2 2
0 0 0 0 0 0 0 0 1 2 3 4 5 5 4 4 5 5 6 8 10 12 12 13 13 11 9 8 6 6 6 6 6 6 5 4 4 4 4 4 4 3 3 3 3 3 2 2 1
0 0 0 0 0 0 1 2 2 3 3 3 4 3 2 4 7 8 7 8 10 11 12 12 12 11 10 7 6 5 6 6 6 7 6 6 6 6 6 6 5 4 4 4 3 3 3 2 1
0 0 0 0 0 0 1 2 3 4 3 3 3 3 3 5 7 8 8 9 10 12 12 12 11 11 11 9 7 7 6 5 7 7 7 6 6 6 6 6 6 6 6 5 4 4 4 3 2
0 0 0 0 0 0 0 1 2 3 4 3 2 3 6 8 7 7 8 9 11 12 13 12 11 11 12 12 10 8 6 6 7 6 6 6 6 6 6 6 6 6 6 6 5 5 5 5 4
0 0 0 0 0 0 0 0 0 2 4 3 2 4 7 9 7 6 7 9 10 11 12 12 12 11 12 13 13 10 8 7 7 5 5 6 6 6 6 6 6 6 6 6 6 6 6 6 6
0 0 0 0 0 0 0 0 0 1 2 3 3 6 8 8 8 8 9 9 9 10 12 13 12 12 12 13 14 12 10 9 8 7 7 7 7 7 7 6 7 7 7 7 7 6 6 6 6
0 0 0 0 0 0 0 0 0 1 1 2 5 9 10 11 11 13 13 12 10 10 12 13 12 12 12 13 13 13 13 12 11 10 9 10 9 9 8 7 7 8 8 8 7 6 6 6 6
0 0 0 0 0 0 0 0 2 3 3 4 7 11 13 13 14 16 17 15 12 11 12 13 12 11 12 12 11 12 13 13 13 11 11 11 11 10 9 9 9 8 8 7 7 6 6 6 6
0 0 0 0 0 0 0 1 3 5 7 8 10 13 14 13 14 16 16 16 14 12 12 12 12 10 10 10 9 10 11 12 12 11 10 10 10 9 9 9 9 9 8 7 7 7 6 6 5
0 0 0 0 0 0 0 1 3 6 8 9 11 12 11 10 10 12 13 14 15 14 13 12 12 10 10 9 9 9 9 10 10 10 9 8 7 7 8 8 9 9 8 8 8 7 6 5 5
0 0 0 0 0 0 0 1 3 6 7 9 9 8 7 6 6 8 10 12 13 13 14 15 13 11 10 9 9 8 7 7 8 8 7 5 4 5 6 7 8 8 7 7 8 7 7 6 5
0 0 0 0 0 0 0 1 4 6 7 8 8 6 5 5 6 6 8 9 11 12 15 17 16 12 10 10 10 8 6 5 6 7 5 4 3 4 4 5 6 7 6 6 7 8 8 7 5
Wind_Speed
2 3 2 2 5 5 1 3 2 2 2 1 2 4 5 3 2 2 1 7 9 8 6 9 11 10 10 10 10 10 11 11 11 11 11 11 11 11 10 10 10 10 10 10 10 10 10 10 10
2 2 2 4 5 3 3 3 2 1 1 1 3 4 4 3 2 5 4 6 10 9 6 7 11 10 10 10 10 10 10 11 11 11 10 10 10 10 10 9 9 9 9 9 9 9 9 9 9
2 1 3 5 4 3 3 2 2 1 1 1 2 3 3 2 3 4 5 10 9 7 5 7 12 10 10 10 10 9 10 10 10 10 10 9 9 9 9 9 9 9 9 8 8 8 8 8 8
2 3 5 5 0 4 4 3 1 1 2 2 3 4 3 2 3 5 10 11 10 7 5 7 12 10 10 10 10 9 10 10 9 9 9 8 8 8 9 9 9 8 8 8 7 7 7 7 7
3 4 5 3 3 4 4 3 1 1 0 1 3 3 2 3 6 11 11 11 10 7 5 6 11 10 10 10 10 9 9 9 9 9 8 7 7 8 8 8 8 8 7 7 7 7 7 7 7
5 5 4 1 4 4 3 2 1 1 1 1 3 3 1 2 7 9 9 8 7 7 5 5 10 10 9 9 9 9 8 8 8 8 7 7 7 7 7 8 8 7 7 6 6 5 6 6 6
5 4 3 2 3 3 2 1 1 1 1 2 4 4 1 3 5 8 8 7 6 5 4 3 4 6 8 9 8 8 8 7 7 8 7 7 7 6 7 7 7 6 6 6 5 5 5 5 5
4 5 2 1 2 3 2 2 0 1 2 2 4 6 5 6 8 9 8 6 5 4 3 3 2 3 3 4 7 8 7 7 7 7 7 6 6 6 6 5 5 5 6 6 5 4 5 5 4
4 5 2 4 4 3 1 2 2 0 3 1 1 3 5 13 12 10 7 5 5 5 3 3 3 2 2 3 5 5 6 5 5 5 6 4 2 2 3 4 4 4 5 4 4 4 4 4 3
4 3 6 5 4 3 2 1 1 2 2 1 3 5 10 13 12 11 10 9 8 6 5 3 3 3 3 3 2 2 2 2 2 2 2 2 2 2 2 3 4 4 4 3 3 4 4 3 1
4 6 5 4 4 3 2 2 1 3 2 4 6 9 12 12 10 9 9 8 8 7 6 4 4 4 3 2 2 1 1 2 2 2 2 2 2 2 1 1 1 2 3 2 2 3 2 2 1
3 5 4 3 1 1 2 1 1 3 5 4 8 13 13 13 11 10 9 8 6 6 6 5 5 4 4 3 2 2 1 1 1 1 2 2 2 1 1 1 1 2 1 1 2 1 2 2 2
3 4 3 3 3 2 1 1 2 3 2 5 9 11 12 11 9 7 6 6 6 6 6 6 6 5 4 3 2 2 2 2 2 1 2 2 2 2 1 1 1 1 1 1 1 1 1 1 2
3 3 4 4 2 1 2 1 1 3 3 7 9 9 9 10 9 7 7 7 7 7 7 6 6 6 5 4 3 2 2 2 2 1 1 2 2 2 2 1 1 0 0 0 1 1 1 1 1
1 2 5 3 1 1 3 3 2 3 6 7 7 7 7 7 7 8 9 8 8 7 7 7 7 6 5 4 3 3 2 2 2 1 1 2 2 2 2 1 1 0 0 1 1 2 2 2 1
2 2 2 4 1 1 4 4 4 3 6 6 6 7 6 6 6 6 6 5 5 6 6 6 7 6 6 4 4 2 2 3 2 2 2 2 2 3 2 1 1 1 1 1 2 2 2 2 1
4 0 2 4 2 1 3 4 5 3 5 5 6 6 7 5 5 5 5 6 6 6 6 6 6 7 6 5 3 3 2 3 2 2 2 2 3 3 2 2 1 2 2 1 1 2 1 1 1
3 2 2 3 2 1 0 4 5 3 5 5 6 6 6 7 7 6 5 5 5 5 5 6 5 5 5 4 3 2 2 2 2 2 2 3 2 3 2 2 2 2 2 2 2 2 2 2 1
4 2 3 5 3 0 3 5 6 4 3 5 6 6 7 7 5 4 4 5 5 5 5 6 6 5 5 4 3 3 2 1 1 2 2 3 3 3 3 2 2 2 2 2 2 2 2 1 1
2 2 4 5 2 2 2 5 5 4 6 7 8 7 7 5 3 3 4 5 6 6 6 6 6 6 5 4 3 3 2 2 2 1 2 2 3 3 3 3 2 2 2 2 2 2 2 1 1
4 5 5 4 3 2 0 4 3 3 2 3 5 6 6 7 7 6 6 6 6 7 7 6 6 6 5 5 3 3 2 2 1 1 1 2 3 3 3 3 3 2 2 2 2 2 2 1 1
6 6 6 3 0 3 0 3 6 3 3 3 5 5 5 5 5 5 6 6 6 7 6 6 6 6 5 5 5 5 4 3 3 2 2 1 2 3 3 3 4 3 2 2 2 2 2 2 1
7 3 4 3 3 1 1 2 8 2 4 6 6 6 6 6 6 6 6 6 6 6 6 5 5 5 5 5 6 5 4 3 2 1 2 1 1 2 3 3 3 3 3 3 2 2 2 2 2
4 4 4 4 4 2 4 4 7 4 6 5 6 5 6 5 6 5 4 3 4 4 5 5 5 5 5 6 6 6 6 4 3 3 2 2 1 1 2 3 3 3 3 3 3 3 3 2 2
4 5 3 3 2 6 3 4 8 7 5 5 6 5 5 5 5 5 5 4 4 5 5 5 6 5 5 6 6 6 6 6 5 5 4 3 2 2 3 3 3 3 3 3 3 3 3 3 2
4 8 7 5 5 4 1 5 7 5 3 2 3 3 4 4 4 5 5 5 5 6 5 6 6 6 6 6 6 6 6 4 4 4 4 4 3 3 3 3 3 3 3 3 3 2 2 2 2
5 4 5 6 2 1 4 5 6 1 2 2 2 2 3 3 4 4 4 4 4 6 6 7 7 6 6 6 5 4 4 4 4 4 3 3 2 2 3 3 3 3 3 3 3 2 2 2 1
5 7 5 5 4 3 4 3 5 4 2 1 0 1 2 2 3 3 3 3 4 4 4 5 6 5 5 5 4 4 4 4 4 3 3 3 2 2 3 3 3 3 3 3 3 2 2 2 2
3 4 5 4 4 5 3 6 5 5 4 3 2 1 1 2 2 3 2 3 3 2 3 3 4 4 4 4 4 4 3 3 3 3 3 3 2 2 3 3 3 3 3 3 3 2 3 2 2
4 6 7 5 4 4 3 8 3 2 2 2 1 1 1 1 1 1 2 3 2 2 2 3 3 4 4 4 4 4 3 3 3 3 3 2 2 2 3 3 4 4 3 3 3 3 3 3 3
Wind_Direction
159 123 115 84 56 49 346 272 241 303 335 8 92 109 120 123 161 176 135 136 131 138 147 151 149 143 136 130 127 123 126 127 127 128 127 126 127 126 126 125 125 128 128 128 126 123 123 123 123
134 139 81 62 77 55 292 269 271 236 194 80 73 83 84 77 79 115 131 141 137 140 143 152 151 146 140 134 129 127 126 128 128 129 128 128 129 130 128 128 128 129 129 128 127 125 125 125 125
155 130 82 71 93 170 247 267 236 284 226 162 79 70 96 118 132 150 155 141 133 135 139 158 150 147 142 137 132 128 126 129 131 132 133 132 131 133 132 132 131 130 128 126 126 125 125 125 126
105 52 54 69 141 229 231 257 259 32 347 45 98 81 65 59 150 146 138 139 134 136 143 160 150 148 143 139 135 132 130 131 133 133 134 135 136 137 139 138 134 129 127 129 130 128 127 129 132
65 75 58 32 286 270 261 260 192 122 309 48 99 102 53 15 102 125 136 140 141 141 147 157 150 149 145 141 136 133 133 133 134 135 135 135 139 141 142 142 139 135 132 130 127 128 134 134 132
58 65 78 308 292 292 286 264 120 123 135 95 104 106 62 90 117 133 135 136 139 141 141 148 154 152 149 144 139 135 134 135 135 136 136 138 139 141 143 144 143 142 140 138 136 136 137 137 137
102 96 144 215 286 306 295 325 142 151 155 169 133 112 118 127 129 126 122 122 124 127 129 137 151 155 155 149 144 140 138 137 137 137 137 139 142 143 143 142 144 144 146 145 143 142 144 141 134
123 105 130 225 231 268 293 336 304 165 193 129 126 145 180 168 133 116 110 112 119 121 126 133 132 133 138 149 153 147 143 140 139 140 141 143 143 141 139 133 133 139 146 146 141 134 145 142 132
93 84 191 215 208 253 303 348 339 52 107 89 113 162 159 136 130 122 121 124 139 150 145 141 135 131 134 143 159 152 149 143 140 139 139 135 107 101 116 125 129 128 137 140 134 124 128 133 127
99 149 221 212 204 236 289 290 244 70 70 73 60 81 122 136 142 146 154 161 168 174 172 161 156 147 144 155 141 127 135 128 114 100 112 93 81 92 109 118 126 118 117 122 128 132 122 110 91
157 194 228 234 228 235 265 292 229 141 219 206 174 148 145 147 153 159 166 170 176 172 170 166 167 158 151 141 128 119 115 112 108 105 103 92 84 76 68 64 71 65 70 62 69 72 85 94 110
190 239 229 251 225 234 217 248 288 201 228 196 160 152 152 157 164 171 171 175 172 166 175 166 168 165 161 146 139 132 124 125 124 121 115 110 102 87 75 72 60 54 47 56 56 76 85 98 115
216 260 259 255 278 239 201 221 207 256 252 126 135 145 156 164 169 170 164 168 171 176 178 176 172 170 163 149 154 153 149 144 141 134 137 131 130 128 108 87 74 56 50 67 73 98 99 97 99
237 260 289 289 275 233 156 270 152 262 138 128 142 156 165 170 172 166 168 176 182 183 181 179 174 173 162 160 159 154 148 135 125 133 146 143 135 129 129 114 94 68 72 73 79 88 103 108 103
277 320 323 301 260 220 117 335 241 212 144 146 158 165 168 176 174 181 185 185 184 182 178 178 176 168 164 164 162 152 148 141 143 147 149 147 138 135 130 120 114 83 90 89 80 73 79 92 89
38 46 316 299 299 204 126 251 264 179 153 168 171 173 177 188 189 193 187 185 175 168 173 176 176 165 164 164 161 152 152 147 152 148 146 151 147 136 128 129 137 107 99 96 96 85 84 78 83
31 100 256 301 313 103 129 240 261 185 163 183 184 181 182 188 195 200 188 185 176 171 169 172 171 165 165 162 155 152 148 148 149 142 148 155 151 140 133 139 131 114 102 99 107 85 100 107 97
211 211 245 258 295 58 228 257 270 217 180 194 192 188 189 196 206 201 191 182 171 166 163 164 162 160 154 145 131 115 111 127 135 150 157 153 149 146 138 131 119 116 108 99 98 97 85 99 98
172 189 254 262 266 218 250 265 265 241 199 200 199 195 201 210 207 184 182 175 162 161 162 164 164 163 153 152 154 153 168 165 160 170 156 156 155 158 151 143 135 132 126 130 124 112 92 74 78
192 242 268 288 289 196 254 279 266 229 215 205 200 205 206 208 201 191 182 179 177 176 173 170 171 169 167 167 161 155 148 158 174 171 158 161 165 163 161 154 154 147 129 114 117 117 110 76 63
215 207 229 244 335 14 4 309 287 270 239 223 212 207 203 198 199 198 189 191 185 184 181 180 176 172 168 156 133 112 93 75 97 141 179 180 174 170 162 160 155 156 152 153 147 141 143 141 52
241 224 210 218 203 282 158 275 283 268 273 244 235 217 210 205 197 195 190 189 193 195 182 175 173 167 163 154 152 154 159 170 194 185 192 179 177 180 173 163 163 165 160 160 165 154 149 143 163
215 211 187 194 180 258 313 210 281 284 261 253 239 227 218 206 196 195 194 195 195 188 178 174 166 165 164 163 163 163 167 174 168 156 159 174 195 195 181 169 167 170 167 164 159 147 151 164 174
170 77 56 51 85 241 230 185 270 242 234 251 239 224 212 206 196 189 179 176 186 179 171 170 169 169 166 169 170 172 172 168 162 175 181 191 200 205 194 174 171 172 166 167 169 163 171 185 182
110 97 32 354 9 246 233 185 247 249 236 235 239 227 208 195 184 174 171 174 179 185 183 175 172 176 176 176 180 183 182 178 185 192 195 191 194 206 210 187 173 174 179 168 157 157 173 186 184
171 145 162 196 219 265 266 225 251 265 276 253 227 205 178 171 174 176 181 179 185 191 186 172 174 181 182 186 192 188 185 184 194 197 192 192 199 208 199 185 182 182 175 167 157 161 187 178 193
140 173 167 137 169 254 269 275 294 285 346 22 86 126 160 169 174 179 180 177 180 183 186 182 179 179 182 188 189 187 187 187 193 192 183 187 195 193 181 174 179 179 171 167 163 172 190 171 192
141 145 107 126 158 240 276 260 248 254 261 328 66 174 172 156 163 174 176 175 176 180 179 173 173 179 179 179 181 177 181 190 191 181 185 186 195 189 165 166 175 175 172 170 166 169 182 179 211
116 115 119 130 158 165 237 261 234 222 221 219 229 221 186 170 173 179 174 165 153 142 145 153 159 162 168 176 174 171 181 180 173 176 189 177 175 176 179 179 177 180 183 180 176 186 185 189 219
159 164 147 155 207 182 186 260 272 221 227 204 218 350 19 103 142 144 129 115 114 128 141 150 160 169 178 174 164 175 179 175 176 182 184 173 177 191 193 185 182 189 190 187 185 202 202 197 211